Regional Weather Roundup
Issued by NWS

Home | Current Version | Previous Version | Graphics & Text | Print | Product List | Glossary Off
Versions: 1 2 3 4 5 6 7 8 9 10 11 12 13 14 15 16 17 18 19 20 21 22 23 24 25 26 27 28 29 30 31 32 33 34 35 36 37 38 39 40 41 42 43 44 45 46 47 48 49 50

000
ASUS43 KDTX 150501
RWRMI
MICHIGAN HOURLY REGIONAL WEATHER ROUNDUP
NATIONAL WEATHER SERVICE DETROIT/PONTIAC MI
1200 AM EST FRI DEC 15 2017

NOTE: "FAIR" INDICATES FEW OR NO CLOUDS BELOW 12,000 FEET WITH NO
SIGNIFICANT WEATHER AND/OR OBSTRUCTION TO VISIBILITY.

MIZ047>049-052>055-059>063-066>070-074>076-081>083-150600-
SOUTHEAST LOWER MICHIGAN

CITY           SKY/WX    TMP DP  RH WIND       PRES   REMARKS
ADRIAN         CLOUDY    13   5  70 W5        30.06F WCI   5
ALMA           PTCLDY    12  11  95 S5        30.01F FOG     WCI   5
ANN ARBOR      CLOUDY    11   7  84 CALM      30.03F
BAD AXE        CLOUDY    16  11  82 SW5       30.00S WCI   9
CARO           LGT SNOW  17  12  82 CALM      30.00F
DETROIT CITY   CLOUDY    15   8  73 SW3       30.06S
DETROIT        CLOUDY    19   7  59 S8        30.06F WCI   9
FLINT          CLOUDY    17   9  70 SW7       30.02F WCI   8
GROSSE ILE     CLOUDY    16   8  70 W6        30.06S WCI   7
HILLSDALE      CLOUDY    16   9  73 SW6       30.01S WCI   7
HOWELL         LGT SNOW  17  12  83 SW5       30.01F WCI  10

CITY           SKY/WX    TMP DP  RH WIND       PRES   REMARKS
JACKSON        CLOUDY    17  10  74 S8        30.01F WCI   7
LAMBERTVILLE   CLOUDY     6   3  88 CALM      30.07F
LANSING        FLURRIES  19  15  84 SW7       30.02F WCI  10
LAPEER         FLURRIES  16  11  81 SW6       30.01F WCI   8
MASON          FLURRIES  19  12  73 SW3       30.01F
MONROE         CLOUDY     9   4  82 CALM      30.06F
MT. CLEMENS    CLOUDY    14  14  98 SW7       30.03S WCI   4
PONTIAC        FLURRIES  14  10  84 W3        30.00F
PORT HOPE        N/A     17  11  77 SW7       29.98F WCI   8
PORT HURON     CLOUDY     5   1  85 CALM      30.04S
TRI CITIES     CLOUDY    16  14  92 SW6       30.01F WCI   7
MIDLAND        CLOUDY    18  13  79 SW5       30.00F WCI  11
TROY           CLOUDY    17   9  71 SW3       30.05F
SAGINAW HB     LGT SNOW  16  12  86 CALM      30.02F
$$
MIZ043>046-050>051-056>058-064>065-071>073-077>080-150600-
SOUTHWEST LOWER MICHIGAN

CITY           SKY/WX    TMP DP  RH WIND       PRES   REMARKS
BATTLE CREEK   CLOUDY    19  15  84 SW9       30.01F WCI   8
BENTON HARBOR  CLOUDY    22  16  78 S6        30.03F WCI  14
BIG RAPIDS     FLURRIES  18  14  86 SW3       29.95F
COLDWATER      CLOUDY    17  11  79 SW5       30.02F WCI   9
HOLLAND        CLOUDY    21  17  84 S6        30.01F WCI  13
GRAND RAPIDS   FLURRIES  20  17  88 S5        30.00F WCI  13
IONIA          FLURRIES  19  16  89 CALM      30.00F
KALAMAZOO      CLOUDY    20  15  81 SW10      30.02F WCI   9
LUDINGTON      FLURRIES  25  16  68 W5        29.95F WCI  20
MARSHALL       MOCLDY    17  13  84 SW6       30.02S WCI   9
MOUNT PLEASANT CLOUDY    19  14  80 CALM      29.98F
MUSKEGON       CLOUDY    22  15  75 E5        29.99F WCI  16
SOUTH HAVEN    CLOUDY    24  16  72 CALM      30.02S
$$
MIZ016>042-150600-
NORTHERN LOWER MICHIGAN

CITY           SKY/WX    TMP DP  RH WIND       PRES   REMARKS
ALPENA         CLOUDY    20  13  74 SW6       29.93F WCI  12
BEAVER ISLAND  LGT SNOW  22  18  85 CALM      29.89F
BELLAIRE       CLOUDY    21  17  84 S3        29.92F
CADILLAC       LGT SNOW  16  13  88 S6        29.90F WCI   8
CHARLEVOIX     FLURRIES  23  18  79 SE5       29.92F WCI  17
FRANKFORT      LGT SNOW  26  20  77 W7        29.92F WCI  19
GAYLORD        CLOUDY    17  11  77 SW5       29.87F WCI  10
GRAYLING       CLOUDY    18  11  75 SW6       29.91F WCI   9
HARBOR SPRINGS CLOUDY    21  12  68 E3        29.90F
HOUGHTON LAKE  CLOUDY    17  11  77 S8        29.93F WCI   7
MANISTEE       FLURRIES  25  19  78 W10       29.94F WCI  15
OSCODA         CLOUDY    17  11  77 SW8       29.96F WCI   6
PELLSTON       CLOUDY    17  12  80 CALM      29.90F
ROGERS CITY    PTCLDY    18  14  84 SW6       29.92F WCI  10
TRAVERSE CITY  LGT SNOW  21  15  78 S6        29.92F WCI  13
$$
MIZ007>008-015-150600-
EASTERN UPPER MICHIGAN

CITY           SKY/WX    TMP DP  RH WIND       PRES   REMARKS
KINROSS        CLOUDY    18  10  71 SW3       29.87F
MACKINAC ISLAN CLOUDY    24  13  64 W6        29.88F WCI  17
NEWBERRY       CLOUDY    17  13  86 SW6       29.86F WCI   8
S. S. MARIE    LGT SNOW  16  12  84 SE3       29.87F FOG
MUNISING         N/A     18  15  88 S6        29.86F WCI  10
$$
MIZ004>006-011>014-085-150600-
CENTRAL UPPER MICHIGAN

CITY           SKY/WX    TMP DP  RH WIND       PRES   REMARKS
MANISTIQUE     CLOUDY    18   8  66 W3        29.87F
ESCANABA       FLURRIES  17  12  80 SW6       29.89F WCI   9
MENOMINEE      FLURRIES  20  16  84 SW7       29.92F WCI  11
$$
MIZ001>003-009>011-084-150600-
WESTERN UPPER MICHIGAN

CITY           SKY/WX    TMP DP  RH WIND       PRES   REMARKS
IRON MOUNTAIN  LGT SNOW  16  12  84 S3        29.83F FOG
HOUGHTON       LGT SNOW  20  15  81 W5        29.78F VSB 3/4 WCI  13
COPPER HARBOR    N/A     23  19  85 N9        29.80F WCI  13
IRONWOOD       LGT SNOW  15  12  88 W10       29.84F FOG     WCI   2
$$

ABBREVIATIONS USED IN REMARKS
   TC - TEMPERATURE IN CELSIUS
  WCI - WIND CHILL INDEX
   HX - HEAT INDEX
  VSB - VISIBILITY





USA.gov is the U.S. government's official web portal to all federal, state and local government web resources and services.